Home   Weather   Burleson   Past weeks
Flag for USA

Past Weather in Burleson, Texas, USA — Yesterday and Last 2 Weeks

Now
72 °F

Sunny.


Feels Like: 77 °F
Forecast: 69 / 57 °F
Wind: 14 mph from Southeast

Location: Burleson-Rendon

Current Time: Mar 22, 2019 at 7:37:01 pm

Latest Report: Mar 22, 2019 at 6:52 pm


Visibility: 10 mi

Pressure: 30.05 "Hg

Humidity: 38%

Dew Point: 45 °F

Location of BurlesonLocation

Past Weather in Burleson — Graph

°F

Burleson Temperature Yesterday

Maximum temperature yesterday: 77 °F (at 3:53 pm)
Minimum temperature yesterday: 41 °F (at 6:35 am)
Average temperature yesterday: 52 °F

High & Low Weather Summary for the Past Weeks

 TemperatureHumidityPressure
High79 °F (Mar 8, 3:49 pm)100% (Mar 12, 11:46 am)30.50 "Hg (Mar 12, 11:46 am)
Low30 °F (Mar 17, 6:45 am)24% (Mar 13, 5:47 pm)29.51 "Hg (Mar 13, 4:47 pm)
Average55 °F66%30.12 "Hg
* Reported Mar 7 5:46 pm — Mar 22 5:54 pm, Burleson. Weather by CustomWeather, © 2019

Note: Actual official high and low records may vary slightly from our data, if they occured in-between our weather recording intervals... More about our weather records

Advertising

Burleson Weather History for the Previous 24 Hours

Scroll right to see more
 ConditionsComfort  
Time TempWeatherWind HumidityBarometerVisibility
5:54 pm
Fri, Mar 22
72 °FSunny.16 mph33%30.05 "Hg10 mi
4:52 pm77 °FSunny.13 mph32%30.04 "Hg10 mi
3:53 pm75 °FSunny.12 mph34%30.06 "Hg10 mi
2:50 pm73 °FSunny.10 mph36%30.10 "Hg10 mi
1:54 pm73 °FSunny.13 mph36%30.13 "Hg10 mi
12:55 pm73 °FSunny.9 mph44%30.17 "Hg10 mi
11:55 am70 °FSunny.5 mph43%30.20 "Hg10 mi
10:51 am66 °FSunny.5 mph37%30.20 "Hg10 mi
9:51 am63 °FSunny.3 mph49%30.20 "Hg10 mi
8:53 am54 °FSunny.No wind63%30.21 "Hg10 mi
6:35 am42 °FClear.No wind90%30.16 "Hg10 mi
6:15 am42 °FClear.No wind88%30.15 "Hg10 mi
5:55 am42 °FClear.No wind89%30.16 "Hg10 mi
5:35 am43 °FClear.No wind89%30.15 "Hg10 mi
5:15 am42 °FClear.No wind90%30.16 "Hg10 mi
4:55 am43 °FClear.No wind87%30.15 "Hg10 mi
4:35 am45 °FClear.No wind87%30.15 "Hg10 mi
3:55 am44 °FClear.No wind88%30.15 "Hg10 mi
3:35 am44 °FClear.No wind85%30.16 "Hg10 mi
3:15 am45 °FClear.No wind84%30.16 "Hg10 mi
2:55 am45 °FClear.No wind81%30.16 "Hg10 mi
2:35 am48 °FClear.No wind81%30.16 "Hg10 mi
1:55 am46 °FClear.No wind85%30.16 "Hg10 mi
1:35 am46 °FClear.No wind81%30.16 "Hg10 mi
12:55 am48 °FClear.No wind79%30.17 "Hg10 mi
12:35 am49 °FClear.No wind75%30.17 "Hg10 mi
11:55 pm
Thu, Mar 21
50 °FClear.No wind70%30.17 "Hg10 mi
11:35 pm55 °FClear.No wind63%30.17 "Hg10 mi
11:15 pm52 °FClear.No wind65%30.17 "Hg10 mi
10:55 pm51 °FClear.No wind69%30.17 "Hg10 mi
10:35 pm53 °FClear.No wind63%30.17 "Hg10 mi
10:15 pm57 °FClear.No wind54%30.16 "Hg10 mi
9:55 pm56 °FClear.3 mph52%30.15 "Hg10 mi
9:35 pm56 °FClear.No wind57%30.15 "Hg10 mi
9:15 pm63 °FClear.No wind37%30.14 "Hg10 mi
8:55 pm68 °FClear.No wind28%30.13 "Hg10 mi
8:35 pm67 °FClear.6 mph31%30.13 "Hg10 mi
7:55 pm70 °FClear.3 mph27%30.13 "Hg10 mi
Weather by CustomWeather, © 2019

See weather overview